Gastonia, NC

6:06 AM EST on November 12, 2019 (GMT -0500)
Gastonia Municipal

Weather History for KAKH - October, 2019

Change the Weather History Date:

Wednesday, October 23, 2019

  Actual Average (WUND) Record (WUND)
Temperature  
Mean Temperature 58 °F -  
Max Temperature 71 °F - - (-1)
Min Temperature 46 °F - - (-1)
Degree Days  
Heating Degree Days 7    
Growing Degree Days 8 (Base 50)    
Moisture  
Dew Point 39 °F    
Average Humidity 60    
Maximum Humidity 86    
Minimum Humidity 22    
Precipitation  
Precipitation 0.00 in - - ()
Sea Level Pressure  
Sea Level Pressure 30.13 in    
Wind  
Wind Speed 1 mph ()    
Max Wind Speed 8 mph    
Max Gust Speed -    
Visibility 10.0 miles    
Events      
Averages and records for this station are not official NWS values.
T = Trace of Precipitation, MM = Missing Value Source: Averaged Metar Reports

Daily Weather History Graph

Daily Weather History Graph

Search for Another Location

Airport or City:

Astronomy

Oct. 23, 2019 Rise Set
Actual Time 7:37 AM EDT 6:39 PM EDT
Civil Twilight 7:11 AM EDT 7:05 PM EDT
Nautical Twilight 6:41 AM EDT 7:35 PM EDT
Astronomical Twilight 6:12 AM EDT 8:04 PM EDT
Moon 2:10 AM EDT (10/23) 4:14 PM EDT (10/23)
Length of Visible Light 11h 54m
Length of Day
11h 02m
Waning Crescent, 27% of the Moon is Illuminated
Oct 23
Waning Crescent
Oct 27
New
Nov 4
First Quarter
Nov 12
Full
Nov 19
Last Quarter

Hourly Weather History & Observations

Time (EDT) Temp. Dew Point Humidity Pressure Visibility Wind Dir Wind Speed Gust Speed Precip Events Conditions
12:54 AM 51.1 °F 46.0 °F 83% 29.98 in 10.0 mi Calm Calm - N/A   Clear
1:54 AM 50.0 °F 45.0 °F 83% 29.99 in 10.0 mi Calm Calm - N/A   Clear
2:54 AM 51.1 °F 44.1 °F 77% 30.01 in 10.0 mi Calm Calm - N/A   Clear
3:54 AM 48.0 °F 43.0 °F 83% 30.00 in 10.0 mi Calm Calm - N/A   Clear
4:54 AM 46.0 °F 42.1 °F 86% 30.03 in 10.0 mi Calm Calm - N/A   Clear
5:54 AM 46.0 °F 41.0 °F 83% 30.06 in 10.0 mi Calm Calm - N/A   Clear
6:54 AM 54.0 °F 37.9 °F 55% 30.09 in 10.0 mi Variable 3.5 mph - N/A   Clear
7:54 AM 48.0 °F 39.9 °F 74% 30.11 in 10.0 mi Calm Calm - N/A   Clear
8:54 AM 55.9 °F 42.1 °F 60% 30.13 in 10.0 mi North 3.5 mph - N/A   Clear
9:54 AM 60.1 °F 37.9 °F 44% 30.15 in 10.0 mi North 4.6 mph - N/A   Clear
12:54 PM 66.9 °F 32.0 °F 27% 30.17 in 10.0 mi NNE 8.1 mph - N/A   Clear
1:54 PM 68.0 °F 32.0 °F 26% 30.14 in 10.0 mi Variable 3.5 mph - N/A   Clear
2:54 PM 70.0 °F 32.0 °F 25% 30.14 in 10.0 mi North 5.8 mph - N/A   Clear
3:54 PM 70.0 °F 30.0 °F 23% 30.14 in 10.0 mi Variable 3.5 mph - N/A   Clear
4:54 PM 70.0 °F 28.9 °F 22% 30.16 in 10.0 mi Calm Calm - N/A   Clear
5:54 PM 66.9 °F 32.0 °F 27% 30.16 in 10.0 mi North 4.6 mph - N/A   Clear
6:54 PM 55.9 °F 41.0 °F 57% 30.18 in 10.0 mi Calm Calm - N/A   Clear
7:54 PM 52.0 °F 43.0 °F 71% 30.20 in 10.0 mi Calm Calm - N/A   Clear
8:54 PM 50.0 °F 41.0 °F 71% 30.21 in 10.0 mi Calm Calm - N/A   Clear
9:54 PM 48.0 °F 42.1 °F 80% 30.22 in 10.0 mi Calm Calm - N/A   Clear
10:54 PM 46.0 °F 41.0 °F 83% 30.24 in 10.0 mi Calm Calm - N/A   Clear
11:54 PM 46.0 °F 39.9 °F 79% 30.24 in 10.0 mi Calm Calm - N/A   Clear